Location: Knowlton
(51.2333°N, 1.2667°E)
Time: 10:51:03
(UTC+00:00)

Cosmos 2221 - Pass Details

Date: 18 April 2021
Orbit: 593 x 615 km, 82.5° (Epoch: 05 May)

Event Time Altitude Azimuth Distance (km) Brightness Sun altitude
Exits shadow 22:30:08 74° 328° (NNW) 625 2.6 -25.0°
Drops below altitude 10° 22:34:08 10° 8° (N) 1,944 5.9 -25.2°
Sets 22:36:22 0° 10° (N) 2,853 6.9 -25.4°
